Location: Bow
(51.5261°N, 0.0167°W)
Time: 12:34:37
(UTC+00:00)

Cosmos 2278 Rocket - Pass Details

Date: 18 September 2020
Orbit: 841 x 845 km, 71.0° (Epoch: 23 October)

Event Time Altitude Azimuth Distance (km) Brightness Sun altitude
Exits shadow 21:22:27 19° 48° (NE) 1,930 4.0 -28.1°
Drops below altitude 10° 21:24:02 10° 41° (NE) 2,470 4.7 -28.3°
Sets 21:26:35 0° 34° (NE) 3,410 5.5 -28.6°
